Location: Northam
(31.6525°S, 116.6655°E)
Time: 21:10:30
(UTC+08:00)

AO-27 - Visible Passes

Search period start: 31 July 2021 00:00
Search period end: 10 August 2021 00:00
Orbit: 786 x 796 km, 98.9° (Epoch: 30 July)

Date Brightness Start Highest point End Pass type
(mag) Time Alt. Az. Time Alt. Az. Time Alt. Az.
31 Jul 8.0 06:24:23 10° NNE 06:29:34 73° ESE 06:34:49 10° S visible
31 Jul 8.1 18:42:44 10° SSE 18:47:36 39° E 18:52:27 10° NNE visible
31 Jul 9.9 20:22:57 10° SSW 20:26:45 21° WSW 20:30:31 10° WNW visible
01 Aug 9.2 05:55:49 10° NE 06:00:33 36° ESE 06:05:20 10° S visible
01 Aug 9.0 18:14:36 10° SE 18:18:18 19° E 18:21:59 10° NE visible
01 Aug 8.9 19:52:58 10° S 19:57:50 39° WSW 20:02:39 10° NW visible
02 Aug 10.2 05:28:05 10° ENE 05:31:40 19° ESE 05:35:15 10° SSE visible
02 Aug 7.7 19:23:32 10° S 19:28:48 80° WSW 19:34:00 10° NNW visible
03 Aug 7.8 18:54:32 10° SSE 18:59:39 51° E 19:04:42 10° N visible
03 Aug 10.3 20:35:33 10° SSW 20:38:37 16° WSW 20:41:40 10° WNW visible
04 Aug 8.7 06:07:31 10° NE 06:12:29 48° ESE 06:17:30 10° S visible
04 Aug 8.6 18:26:05 10° SE 18:30:23 25° E 18:34:39 10° NNE visible
04 Aug 9.4 20:05:13 10° S 20:09:45 30° WSW 20:14:16 10° NW visible
05 Aug 9.9 05:39:24 10° ENE 05:43:33 25° ESE 05:47:43 10° SSE visible
05 Aug 8.1 19:35:36 10° S 19:40:46 60° WSW 19:45:54 10° NNW visible
06 Aug 10.5 05:12:35 10° E 05:14:44 13° ESE 05:16:52 10° SE visible
06 Aug 7.6 19:06:25 10° SSE 19:11:40 68° ENE 19:16:51 10° N visible
06 Aug 10.6 20:48:33 10° SW 20:50:28 12° WSW 20:52:23 10° W visible
07 Aug 8.2 06:19:19 10° NNE 06:24:27 63° ESE 06:29:37 10° S visible
07 Aug 8.3 18:37:43 10° SE 18:42:26 33° E 18:47:07 10° NNE visible
07 Aug 9.8 20:17:34 10° SSW 20:21:39 24° WSW 20:25:44 10° WNW visible
08 Aug 9.5 05:50:54 10° NE 05:55:27 32° ESE 06:00:02 10° S visible
08 Aug 9.1 18:09:50 10° SE 18:13:07 17° E 18:16:22 10° NE visible
08 Aug 8.6 19:47:43 10° S 19:52:43 46° WSW 19:57:41 10° NW visible
09 Aug 10.4 05:23:25 10° ENE 05:26:35 17° ESE 05:29:46 10° SSE visible
09 Aug 7.6 19:18:23 10° SSE 19:23:40 89° ENE 19:28:53 10° NNW visible
